Погода в Затворном

Россия / Рязанская область     53°45′52″N   39°04′12″E
темп.,
°C
ветер,
м/с
пор.,
м/с
влажн.,
%
обл.,
%
осадки,
мм/ч
давл.,
гПа
погр.,
м
8 мая, сб
сб800:00+8ююв376996 0.0 1015103
03:00+8ююв61369100 0.0 1014304
06:00+9ююв61577100 0.0 1012469
09:00+9ююв71587100 1.0 1011848
12:00+10ююв81582100 1.7 1009895
15:00+11ююв71686100 3.1 1007961
18:00+10ююв111893100 4.5 10041100
21:00+11ю71493100 6.6 1003690
9 мая, вс
вс900:00+9юз5994100 0.1 1003386
03:00+8ююз5996100 0.1 1005518
06:00+5зсз81195100 0.1 1007684
09:00+3сз71396100 0.3 1011746
12:00+6сз71178100 0.3 10131227
15:00+7сз8107594 0.4 10161369
18:00+8сз5117315 0.1 10181380
21:00+5сз35835 0.1 102188
10 мая, пн
пн1000:00+4сз49845 0.0 1022163
03:00+4ссз413790 0.0 1025264
06:00+4с512790 0.0 1027282
09:00+9с610610 0.0 10271079
12:00+11ссв79524 0.0 10271385
15:00+13ссв8104813 0.0 10271620
18:00+12ссв610572 0.0 1027985
21:00+7ссв511740 0.0 1028243
11 мая, вт
вт1100:00+6ссв514724 0.0 1028343
03:00+5св615715 0.0 1028347
06:00+6св7167933 0.0 1028444
09:00+10св81268100 0.0 1028576
12:00+14всв71169100 0.0 1027697
15:00+17всв796867 0.0 10261123
18:00+16св6107792 0.0 1026588
21:00+13св6148499 0.1 1025455
12 мая, ср
ср1200:00+13в51092100 0.3 1025425
03:00+11всв4996100 0.3 1024314
06:00+11всв599792 0.3 1023309
09:00+12в61295100 0.9 1023759
12:00+13в51095100 0.3 1023635
15:00+15в4119096 0.8 1022805
18:00+15в5128992 0.3 1021644
21:00+14в51391100 0.8 1020442